Flag for Norway Weather past 2 weeks in Kvernaland, Norway

Now
64 °F

Rain showers. Passing clouds.


Feels Like: 64 °F
Forecast: 53 / 57 °F
Wind: 5 mph from North

Location: Stavanger / Sola

Current Time: Jul 29, 2015 at 4:01:45 PM

Latest Report: Jul 29, 2015 at 3:00 PM


Visibility: 25 mi

Pressure: 29.38 "Hg

Humidity: 75%

Dew point: 56 °F

Location of KvernalandLocation

Historic Weather in Kvernaland — Graph

°F

Kvernaland temperature yesterday

Maximum temperature yesterday: 64 °F (at 3:00 PM)
Minimum temperature yesterday: 56 °F (at 4:00 AM)
Average temperature yesterday: 60 °F

Past Weeks' High & Low Weather Summary

 TemperatureHumidityPressure
High69 °F (Jul 17, 2:00 PM)98% (Jul 20, 6:00 AM)30.15 "Hg (Jul 20, 6:00 AM)
Low45 °F (Jul 17, 5:00 AM)38% (Jul 17, 4:00 PM)29.38 "Hg (Jul 29, 10:00 AM)
Average57 °F80%29.76 "Hg
* Reported Jul 14 2:00 PM — Jul 29 2:00 PM, Kvernaland, Weather by CustomWeather, © 2015

Note: Actual official high and low records may vary slightly from our data, if they occured in-between our weather recording intervals... More about our weather records

Advertising

Kvernaland weather history for previous 24 hours

 ConditionsComfort  
Time TempWeatherWind HumidityBarometerVisibility
2:00 PM
Wed, Jul 29
61 °FLight rain. Passing clouds.3 mph80%29.38 "Hg9 mi
1:00 PM61 °FLight rain. Passing clouds.3 mph79%29.38 "Hg19 mi
12:00 PM59 °FLight rain. Passing clouds.3 mph83%29.38 "Hg13 mi
11:00 AM61 °FSprinkles. Passing clouds.3 mph81%29.38 "Hg25 mi
10:00 AM60 °FDrizzle. Partly sunny.2 mph84%29.38 "Hg19 mi
9:00 AM58 °FSunny.3 mph89%29.41 "Hg16 mi
8:00 AM58 °FSunny.2 mph90%29.41 "Hg18 mi
7:00 AM57 °FSunny.3 mph94%29.41 "Hg10 mi
6:00 AM56 °FOvercast.No wind95%29.41 "Hg11 mi
4:00 AM56 °FOvercast.No wind92%29.44 "Hg16 mi
3:00 AM57 °FOvercast.No wind90%29.47 "Hg19 mi
2:00 AM58 °FPassing clouds.2 mph86%29.47 "Hg22 mi
1:00 AM58 °FCool.2 mph86%29.47 "Hg25 mi
12:00 AM59 °FOvercast.2 mph83%29.50 "Hg25 mi
10:00 PM
Tue, Jul 28
60 °FPartly sunny.2 mph79%29.50 "Hg31 mi
9:00 PM61 °FScattered clouds.3 mph76%29.50 "Hg28 mi
8:00 PM63 °FPassing clouds.3 mph70%29.50 "Hg28 mi
7:00 PM64 °FPassing clouds.5 mph70%29.50 "Hg25 mi
6:00 PM64 °FPassing clouds.5 mph69%29.50 "Hg25 mi
5:00 PM64 °FPartly sunny.6 mph69%29.50 "Hg19 mi
4:00 PM64 °FScattered clouds.6 mph67%29.50 "Hg25 mi
Weather by CustomWeather, © 2015

See weather overviewHow to use our weather pages